Time,TemperatureF,DewpointF,PressureIn,WindDirection,WindDirectionDegrees,WindSpeedMPH,WindSpeedGustMPH,Humidity,HourlyPrecipIn,Conditions,Clouds,dailyrainin,SoftwareType,DateUTC
2013-05-22 05:22:00,40.0,36.0,-100.00,NW,322,0.0,2.0,87,0.00,,,0.01,,2013-05-22 11:22:00,
2013-05-22 05:32:00,40.0,36.0,-100.00,NW,322,0.0,0.0,87,0.00,,,0.01,,2013-05-22 11:32:00,
2013-05-22 05:42:00,39.0,35.0,-100.00,NW,322,0.0,0.0,87,0.00,,,0.01,,2013-05-22 11:42:00,
2013-05-22 05:52:00,39.0,35.0,-100.00,NW,322,0.0,0.0,87,0.00,,,0.01,,2013-05-22 11:52:00,
2013-05-22 06:02:00,39.0,36.0,-100.00,NW,322,0.0,1.0,89,0.00,,,0.01,,2013-05-22 12:02:00,
2013-05-22 06:11:00,39.0,36.0,-100.00,NW,322,0.0,1.0,89,0.00,,,0.01,,2013-05-22 12:11:00,
2013-05-22 06:22:00,39.0,36.0,-100.00,NW,322,0.0,0.0,89,0.00,,,0.01,,2013-05-22 12:22:00,
2013-05-22 06:32:00,39.0,36.0,-100.00,NW,322,1.0,2.0,90,0.00,,,0.01,,2013-05-22 12:32:00,
2013-05-22 06:42:00,39.0,36.0,-100.00,NW,322,1.0,2.0,90,0.00,,,0.01,,2013-05-22 12:42:00,
2013-05-22 06:52:00,39.0,36.0,-100.00,NW,322,0.0,2.0,90,0.00,,,0.01,,2013-05-22 12:52:00,
2013-05-22 07:01:00,40.0,38.0,-100.00,NW,322,0.0,2.0,91,0.00,,,0.01,,2013-05-22 13:01:00,
2013-05-22 07:11:00,40.0,38.0,-100.00,NW,322,0.0,2.0,91,0.00,,,0.01,,2013-05-22 13:11:00,
2013-05-22 07:21:00,41.0,38.0,-100.00,NW,322,0.0,3.0,89,0.00,,,0.00,,2013-05-22 13:21:00,
2013-05-22 07:31:00,43.0,39.0,-100.00,NW,322,0.0,1.0,85,0.00,,,0.00,,2013-05-22 13:31:00,
2013-05-22 07:41:00,43.0,39.0,-100.00,NW,322,0.0,1.0,85,0.00,,,0.00,,2013-05-22 13:41:00,
2013-05-22 07:52:00,45.0,39.0,-100.00,NW,322,0.0,2.0,80,0.00,,,0.00,,2013-05-22 13:52:00,
2013-05-22 08:02:00,47.0,41.0,-100.00,WSW,252,0.0,2.0,78,0.00,,,0.00,,2013-05-22 14:02:00,
2013-05-22 08:11:00,47.0,41.0,-100.00,WSW,252,0.0,2.0,78,0.00,,,0.00,,2013-05-22 14:11:00,
2013-05-22 08:21:00,49.0,38.0,-100.00,NW,308,2.0,4.0,66,0.00,,,0.00,,2013-05-22 14:21:00,
2013-05-22 08:32:00,50.0,38.0,-100.00,WNW,297,1.0,3.0,63,0.00,,,0.00,,2013-05-22 14:32:00,
2013-05-22 08:41:00,50.0,38.0,-100.00,WNW,297,1.0,3.0,63,0.00,,,0.00,,2013-05-22 14:41:00,
2013-05-22 08:52:00,52.0,39.0,-100.00,WNW,285,1.0,3.0,61,0.00,,,0.00,,2013-05-22 14:52:00,
2013-05-22 09:01:00,53.0,39.0,-100.00,NW,313,1.0,4.0,59,0.00,,,0.00,,2013-05-22 15:01:00,
2013-05-22 09:11:00,53.0,39.0,-100.00,NW,313,1.0,4.0,59,0.00,,,0.00,,2013-05-22 15:11:00,
2013-05-22 09:21:00,54.0,39.0,-100.00,WSW,240,0.0,3.0,56,0.00,,,0.00,,2013-05-22 15:21:00,
2013-05-22 09:32:00,57.0,40.0,-100.00,SW,222,1.0,2.0,53,0.00,,,0.00,,2013-05-22 15:32:00,
2013-05-22 09:42:00,57.0,40.0,-100.00,SW,222,1.0,2.0,53,0.00,,,0.00,,2013-05-22 15:42:00,
2013-05-22 09:53:00,58.0,38.0,-100.00,WNW,303,1.0,3.0,48,0.00,,,0.00,,2013-05-22 15:53:00,
2013-05-22 10:02:00,59.0,39.0,-100.00,WNW,299,0.0,4.0,47,0.00,,,0.00,,2013-05-22 16:02:00,
2013-05-22 10:12:00,59.0,39.0,-100.00,WNW,299,0.0,4.0,47,0.00,,,0.00,,2013-05-22 16:12:00,
2013-05-22 10:22:00,60.0,39.0,-100.00,WSW,256,1.0,3.0,46,0.00,,,0.00,,2013-05-22 16:22:00,
2013-05-22 10:32:00,61.0,39.0,-100.00,WSW,251,1.0,4.0,44,0.00,,,0.00,,2013-05-22 16:32:00,
2013-05-22 10:42:00,61.0,39.0,-100.00,WSW,251,1.0,4.0,44,0.00,,,0.00,,2013-05-22 16:42:00,
2013-05-22 10:52:00,61.0,39.0,-100.00,WNW,297,1.0,5.0,44,0.00,,,0.00,,2013-05-22 16:52:00,
2013-05-22 11:02:00,63.0,39.0,-100.00,SSE,165,1.0,4.0,41,0.00,,,0.00,,2013-05-22 17:02:00,
2013-05-22 11:11:00,63.0,39.0,-100.00,NW,305,3.0,8.0,41,0.00,,,0.00,,2013-05-22 17:11:00,
2013-05-22 11:22:00,63.0,39.0,-100.00,NW,305,3.0,8.0,41,0.00,,,0.00,,2013-05-22 17:22:00,
2013-05-22 11:32:00,63.0,40.0,-100.00,NW,310,1.0,4.0,42,0.00,,,0.00,,2013-05-22 17:32:00,
2013-05-22 11:42:00,63.0,40.0,-100.00,NW,310,1.0,4.0,42,0.00,,,0.00,,2013-05-22 17:42:00,
2013-05-22 11:53:00,63.0,40.0,-100.00,NW,309,3.0,6.0,43,0.00,,,0.00,,2013-05-22 17:53:00,
2013-05-22 12:02:00,63.0,40.0,-100.00,ENE,58,1.0,4.0,43,0.00,,,0.00,,2013-05-22 18:02:00,
2013-05-22 12:14:00,63.0,40.0,-100.00,ENE,58,1.0,4.0,43,0.00,,,0.00,,2013-05-22 18:14:00,
2013-05-22 12:22:00,64.0,39.0,-100.00,NNW,347,5.0,9.0,40,0.00,,,0.00,,2013-05-22 18:22:00,
2013-05-22 12:33:00,64.0,39.0,-100.00,NE,42,2.0,8.0,40,0.00,,,0.00,,2013-05-22 18:33:00,
2013-05-22 12:41:00,64.0,39.0,-100.00,NE,42,2.0,8.0,40,0.00,,,0.00,,2013-05-22 18:41:00,
2013-05-22 12:52:00,65.0,40.0,-100.00,NE,37,1.0,5.0,40,0.00,,,0.00,,2013-05-22 18:52:00,
2013-05-22 13:02:00,66.0,38.0,-100.00,ESE,120,4.0,8.0,36,0.00,,,0.00,,2013-05-22 19:02:00,
2013-05-22 13:11:00,66.0,38.0,-100.00,ESE,120,4.0,8.0,36,0.00,,,0.00,,2013-05-22 19:11:00,
2013-05-22 13:21:00,68.0,38.0,-100.00,NNE,14,3.0,8.0,33,0.00,,,0.00,,2013-05-22 19:21:00,
2013-05-22 13:31:00,68.0,36.0,-100.00,SE,131,5.0,11.0,31,0.00,,,0.00,,2013-05-22 19:31:00,
2013-05-22 13:41:00,68.0,36.0,-100.00,SE,131,5.0,11.0,31,0.00,,,0.00,,2013-05-22 19:41:00,
2013-05-22 13:52:00,68.0,36.0,-100.00,SE,131,5.0,11.0,31,0.00,,,0.00,,2013-05-22 19:52:00,
2013-05-22 14:01:00,68.0,36.0,-100.00,SE,131,5.0,11.0,31,0.00,,,0.00,,2013-05-22 20:01:00,
2013-05-22 14:11:00,68.0,36.0,-100.00,SE,131,5.0,11.0,31,0.00,,,0.00,,2013-05-22 20:11:00,
2013-05-22 16:03:00,53.0,45.0,-100.00,WSW,237,0.0,3.0,74,0.06,,,0.07,,2013-05-22 22:03:00,
2013-05-22 16:33:00,55.0,47.0,-100.00,South,187,0.0,1.0,73,0.06,,,0.07,,2013-05-22 22:33:00,
2013-05-22 16:42:00,57.0,42.0,-100.00,ENE,68,3.0,6.0,58,0.01,,,0.07,,2013-05-22 22:42:00,
2013-05-22 16:52:00,57.0,42.0,-100.00,ENE,68,3.0,6.0,58,0.01,,,0.07,,2013-05-22 22:52:00,
2013-05-22 17:02:00,58.0,43.0,-100.00,East,91,1.0,4.0,57,0.00,,,0.07,,2013-05-22 23:02:00,
2013-05-22 17:12:00,58.0,43.0,-100.00,East,91,1.0,4.0,57,0.00,,,0.07,,2013-05-22 23:12:00,
2013-05-22 17:21:00,59.0,39.0,-100.00,NW,320,2.0,5.0,47,0.00,,,0.07,,2013-05-22 23:21:00,
2013-05-22 17:32:00,60.0,40.0,-100.00,NW,320,1.0,6.0,48,0.00,,,0.07,,2013-05-22 23:32:00,
2013-05-22 17:42:00,60.0,40.0,-100.00,NW,320,1.0,6.0,48,0.00,,,0.07,,2013-05-22 23:42:00,
2013-05-22 17:52:00,60.0,42.0,-100.00,NNW,345,2.0,4.0,51,0.00,,,0.07,,2013-05-22 23:52:00,
2013-05-22 18:01:00,60.0,43.0,-100.00,NNW,329,3.0,5.0,53,0.00,,,0.07,,2013-05-23 00:01:00,
2013-05-22 18:11:00,60.0,43.0,-100.00,NNW,329,3.0,5.0,53,0.00,,,0.07,,2013-05-23 00:11:00,
2013-05-22 18:21:00,59.0,39.0,-100.00,NE,38,4.0,8.0,48,0.00,,,0.07,,2013-05-23 00:21:00,
2013-05-22 18:31:00,59.0,41.0,-100.00,NNW,328,1.0,2.0,51,0.00,,,0.07,,2013-05-23 00:31:00,
2013-05-22 18:41:00,59.0,41.0,-100.00,NNW,328,1.0,2.0,51,0.00,,,0.07,,2013-05-23 00:41:00,
2013-05-22 18:52:00,59.0,40.0,-100.00,NNW,330,2.0,6.0,49,0.00,,,0.07,,2013-05-23 00:52:00,
2013-05-22 19:01:00,59.0,41.0,-100.00,North,359,3.0,7.0,51,0.00,,,0.07,,2013-05-23 01:01:00,
2013-05-22 19:11:00,59.0,41.0,-100.00,North,359,3.0,7.0,51,0.00,,,0.07,,2013-05-23 01:11:00,
2013-05-22 19:21:00,58.0,42.0,-100.00,NNW,335,1.0,6.0,55,0.00,,,0.07,,2013-05-23 01:21:00,
2013-05-22 19:32:00,58.0,41.0,29.78,NNW,344,2.0,0.0,54,0.00,,,-99.99,,2013-05-23 01:32:00,
2013-05-22 19:41:00,57.0,41.0,-100.00,ESE,104,2.0,6.0,55,0.00,,,0.07,,2013-05-23 01:41:00,
2013-05-22 19:52:00,57.0,41.0,-100.00,ESE,104,2.0,6.0,55,0.00,,,0.07,,2013-05-23 01:52:00,
2013-05-22 20:01:00,57.0,42.0,-100.00,NNW,335,0.0,2.0,57,0.00,,,0.07,,2013-05-23 02:01:00,
2013-05-22 20:11:00,57.0,42.0,-100.00,NNW,335,0.0,2.0,57,0.00,,,0.07,,2013-05-23 02:11:00,
2013-05-22 20:21:00,57.0,44.0,-100.00,WSW,239,1.0,3.0,62,0.00,,,0.07,,2013-05-23 02:21:00,
2013-05-22 20:31:00,56.0,40.0,-100.00,SW,224,1.0,4.0,55,0.00,,,0.07,,2013-05-23 02:31:00,
2013-05-22 20:42:00,56.0,40.0,-100.00,SW,224,1.0,4.0,55,0.00,,,0.07,,2013-05-23 02:42:00,
2013-05-22 20:51:00,56.0,40.0,-100.00,SW,224,1.0,4.0,55,0.00,,,0.07,,2013-05-23 02:51:00,
2013-05-22 21:01:00,53.0,38.0,-100.00,South,189,0.0,3.0,57,0.00,,,0.07,,2013-05-23 03:01:00,
2013-05-22 21:11:00,53.0,38.0,-100.00,South,189,0.0,3.0,57,0.00,,,0.07,,2013-05-23 03:11:00,
2013-05-22 21:21:00,51.0,37.0,-100.00,South,189,0.0,3.0,59,0.00,,,0.07,,2013-05-23 03:21:00,
2013-05-22 21:33:00,51.0,38.0,-100.00,SW,229,0.0,1.0,60,0.01,,,0.08,,2013-05-23 03:33:00,
2013-05-22 21:43:00,51.0,38.0,-100.00,SW,229,0.0,1.0,60,0.01,,,0.08,,2013-05-23 03:43:00,
2013-05-22 21:53:00,50.0,35.0,-100.00,NW,323,1.0,3.0,57,0.01,,,0.08,,2013-05-23 03:53:00,
2013-05-22 22:02:00,50.0,34.0,-100.00,WSW,253,3.0,11.0,54,0.01,,,0.08,,2013-05-23 04:02:00,
2013-05-22 22:12:00,50.0,34.0,-100.00,WSW,253,3.0,11.0,54,0.01,,,0.08,,2013-05-23 04:12:00,
2013-05-22 22:22:00,49.0,34.0,-100.00,SSW,201,3.0,14.0,55,0.01,,,0.08,,2013-05-23 04:22:00,
2013-05-22 22:33:00,48.0,33.0,-100.00,South,191,0.0,4.0,55,0.00,,,0.08,,2013-05-23 04:33:00,
2013-05-22 22:42:00,48.0,33.0,-100.00,South,191,0.0,4.0,55,0.00,,,0.08,,2013-05-23 04:42:00,
2013-05-22 22:52:00,48.0,34.0,-100.00,East,97,0.0,2.0,58,0.00,,,0.08,,2013-05-23 04:52:00,
2013-05-22 23:02:00,48.0,34.0,-100.00,SW,232,0.0,3.0,59,0.00,,,0.08,,2013-05-23 05:02:00,
2013-05-22 23:11:00,48.0,34.0,-100.00,SW,232,0.0,3.0,59,0.00,,,0.08,,2013-05-23 05:11:00,
2013-05-22 23:21:00,47.0,35.0,-100.00,WSW,243,0.0,1.0,63,0.00,,,0.08,,2013-05-23 05:21:00,
2013-05-22 23:32:00,48.0,33.0,-100.00,South,189,0.0,5.0,55,0.00,,,0.08,,2013-05-23 05:32:00,
2013-05-22 23:42:00,47.0,31.0,-100.00,SSW,199,0.0,8.0,54,0.00,,,0.08,,2013-05-23 05:42:00,
2013-05-22 23:52:00,47.0,31.0,-100.00,SSW,199,0.0,8.0,54,0.00,,,0.08,,2013-05-23 05:52:00,